Regional Weather Roundup
Issued by NWS

Home | Current Version | Previous Version | Text Only | Print | Product List | Glossary Off
Versions: 1 2 3 4 5 6 7 8 9 10 11 12 13 14 15 16 17 18 19 20 21 22 23 24 25 26 27 28 29 30 31 32 33 34 35 36 37 38 39 40 41 42 43 44 45 46 47 48 49 50

206
ASUS44 KLIX 202205
RWRLA
LOUISIANA WEATHER ROUNDUP
NATIONAL WEATHER SERVICE NEW ORLEANS LA
500 PM CDT SAT SEP 20 2014

NOTE: "FAIR" INDICATES FEW OR NO CLOUDS BELOW 12,000 FEET WITH NO
      SIGNIFICANT WEATHER AND/OR OBSTRUCTIONS TO VISIBILITY.
      SKY/WX - SKY CONDITION AND SIGNIFICANT WEATHER.
      TMP - AIR TEMPERATURE.    DP   - DEWPOINT TEMPERATURE.
      RH  - RELATIVE HUMIDITY.  PRES - PRESSURE.
      HX  - HEAT INDEX.         WCI  - WIND CHILL INDEX.

*  THESE STATIONS ARE NOT NWS OR FAA STATIONS AND ARE NOT UNDER
   NWS QUALITY CONTROL.

LAZ040-048-061>063-065-066-069-202300-
SOUTHEAST LOUISIANA

CITY           SKY/WX    TMP DP  RH WIND       PRES   REMARKS
N.O. AUDUBON     N/A     87  67  50 MISG        N/A
N.O. INTL ARPT MOSUNNY   87  66  49 E8        29.92F
N.O. LAKEFRONT SUNNY     85  69  58 E12       29.93F
N.O. DOWNTOWN* FAIR      86  66  51 NE7       29.93F
SLIDELL        MOSUNNY   88  67  49 E6        29.93F
BATON ROUGE    MOSUNNY   87  67  51 NE10      29.94F
BOOTHVILLE     MOSUNNY   82  72  71 NE16G25   29.93F
BELLE CHASSE   MOSUNNY   85  66  53 E12       29.92F
BOGALUSA*      FAIR      87  65  47 NE5       29.96F
GALLIANO*      NOT AVBL
NEW ROADS*     FAIR      87  66  49 NE6       29.94F
GONZALES*      FAIR      87  70  56 NE6       29.93F
HAMMOND*       SUNNY     90  63  40 NE6       29.95F
HOUMA*         MOSUNNY   86  45  23 NE13      29.93S
PORT FOURCHON* PTCLDY    84  72  65 E16G26    29.94F

$$

LAZ041-044-053-054-202300-
SOUTHWEST LOUISIANA

CITY           SKY/WX    TMP DP  RH WIND       PRES   REMARKS
LAKE CHARLES   MOSUNNY   89  70  53 NE13      29.91F
LAFAYETTE      SUNNY     88  68  51 E8        29.93F
PATTERSON      SUNNY     88  70  55 E14       29.95S
SALT POINT       N/A     87  71  58 VRB3      29.91S
NEW IBERIA     SUNNY     89  64  43 E12       29.93F
CHENAULT AIRPK NOT AVBL

$$

LAZ027-028-202300-
CENTRAL LOUISIANA

CITY           SKY/WX    TMP DP  RH WIND       PRES   REMARKS
FORT POLK      SUNNY     88  64  44 E6        29.95F
ALEXANDRIA INT MOSUNNY   90  68  48 NE9       29.93F
ALEXANDRIA     SUNNY     91  68  46 E5        29.95F HX  95

$$

LAZ001-002-202300-
NORTHWEST LOUISIANA

CITY           SKY/WX    TMP DP  RH WIND       PRES   REMARKS
SHREVEPORT     MOSUNNY   91  63  39 SE6       29.94F
BARKSDALE AFB  SUNNY     92  61  35 S7        29.95F
DTN SHREVEPORT SUNNY     92  62  36 E5        29.94F

$$

LAZ014-016-202300-
NORTHEAST LOUISIANA

CITY           SKY/WX    TMP DP  RH WIND       PRES   REMARKS
MONROE         PTSUNNY   83  68  60 S12       29.96S
TALLULAH       SUNNY     90  65  43 E9        29.95F

$$




USA.gov is the U.S. government's official web portal to all federal, state and local government web resources and services.